New York Downtown Manhattan/w, NY

10:52 PM EST on December 13, 2019 (GMT -0500)
New York Downtown Manhattan/w

Weather History for KJRB - August, 2019

Change the Weather History Date:

Monday, August 5, 2019

  Actual Average (KEWR) Record (KEWR)
Temperature  
Mean Temperature 78 °F -  
Max Temperature 84 °F 85 °F 102 °F (1944)
Min Temperature 73 °F 69 °F 57 °F (1951)
Cooling Degree Days 12    
Growing Degree Days 28 (Base 50)    
Moisture  
Dew Point 64 °F    
Average Humidity 63    
Maximum Humidity 84    
Minimum Humidity 47    
Precipitation  
Precipitation 0.00 in - - ()
Sea Level Pressure  
Sea Level Pressure 29.97 in    
Wind  
Wind Speed 6 mph (ESE)    
Max Wind Speed 12 mph    
Max Gust Speed -    
Visibility 10 miles    
Events      
Averages and records for this station are not official NWS values.
T = Trace of Precipitation, MM = Missing Value Source: NWS Daily Summary

Daily Weather History Graph

Daily Weather History Graph

Search for Another Location

Airport or City:

Astronomy

Aug. 05, 2019 Rise Set
Actual Time 5:56 AM EDT 8:07 PM EDT
Civil Twilight 5:26 AM EDT 8:37 PM EDT
Nautical Twilight 4:48 AM EDT 9:14 PM EDT
Astronomical Twilight 4:07 AM EDT 9:55 PM EDT
Moon 11:11 AM EDT (8/5) 11:15 PM EDT (8/5)
Length of Visible Light 15h 11m
Length of Day
14h 10m
Waxing Crescent, 28% of the Moon is Illuminated
Aug 5
Waxing Crescent
Aug 7
First Quarter
Aug 15
Full
Aug 23
Last Quarter
Aug 30
New

Hourly Weather History & Observations

Time (EDT) Temp. Heat Index Dew Point Humidity Pressure Visibility Wind Dir Wind Speed Gust Speed Precip Events Conditions
12:56 AM 75.9 °F - 70.0 °F 82% 29.94 in 10.0 mi Calm Calm - N/A   Partly Cloudy
1:56 AM 75.9 °F - 68.0 °F 76% 29.94 in 10.0 mi West 5.8 mph - N/A   Clear
2:56 AM 75.9 °F - 63.0 °F 64% 29.94 in 10.0 mi NE 10.4 mph - N/A   Clear
3:56 AM 75.9 °F - 57.9 °F 54% 29.95 in 10.0 mi NE 11.5 mph - N/A   Clear
4:56 AM 75.0 °F - 57.0 °F 53% 29.96 in 10.0 mi NE 9.2 mph - N/A   Clear
5:56 AM 73.9 °F - 61.0 °F 64% 29.98 in 10.0 mi ENE 5.8 mph - N/A   Clear
6:56 AM 73.0 °F - 57.0 °F 57% 29.99 in 10.0 mi NE 11.5 mph - N/A   Partly Cloudy
7:56 AM 73.9 °F - 57.9 °F 57% 30.00 in 10.0 mi NE 11.5 mph - N/A   Clear
8:56 AM 73.9 °F - 59.0 °F 59% 30.02 in 10.0 mi ENE 10.4 mph - N/A   Clear
9:56 AM 78.1 °F - 62.1 °F 58% 30.02 in 10.0 mi NE 6.9 mph - N/A   Scattered Clouds
10:56 AM 80.1 °F 81.1 °F 61.0 °F 52% 30.01 in 10.0 mi Variable 5.8 mph - N/A   Clear
11:56 AM 81.0 °F 81.7 °F 61.0 °F 50% 30.01 in 10.0 mi Variable 6.9 mph - N/A   Clear
12:56 PM 81.0 °F 82.5 °F 64.0 °F 56% 30.00 in 10.0 mi WSW 8.1 mph - N/A   Clear
1:56 PM 81.0 °F 81.9 °F 62.1 °F 52% 29.99 in 10.0 mi WSW 6.9 mph - N/A   Clear
2:56 PM 82.0 °F 83.1 °F 63.0 °F 52% 29.98 in 10.0 mi West 8.1 mph - N/A   Clear
3:56 PM 82.9 °F 83.3 °F 61.0 °F 47% 29.96 in 10.0 mi SSE 9.2 mph - N/A   Clear
4:56 PM 82.0 °F 83.4 °F 64.0 °F 54% 29.96 in 10.0 mi SE 4.6 mph - N/A   Clear
5:56 PM 82.0 °F 83.0 °F 62.1 °F 51% 29.95 in 10.0 mi SE 3.5 mph - N/A   Clear
6:56 PM 79.0 °F - 66.0 °F 64% 29.96 in 10.0 mi ESE 4.6 mph - N/A   Clear
7:56 PM 77.0 °F - 68.0 °F 74% 29.96 in 10.0 mi SSE 8.1 mph - N/A   Clear
8:56 PM 75.9 °F - 69.1 °F 79% 29.96 in 10.0 mi SSE 5.8 mph - N/A   Clear
9:56 PM 75.9 °F - 70.0 °F 82% 29.97 in 10.0 mi SSE 5.8 mph - N/A   Clear
10:56 PM 75.0 °F - 70.0 °F 84% 29.96 in 10.0 mi SSE 4.6 mph - N/A   Clear
11:56 PM 75.0 °F - 70.0 °F 84% 29.96 in 10.0 mi SSE 4.6 mph - N/A   Partly Cloudy